Location: Olomouc
(49.5830°N, 17.2500°E)
Time: 21:07:35
(UTC+02:00)

ISS - Pass Details

Date: 11 May 2021
Orbit: 417 x 422 km, 51.6° (Epoch: 14 June)

Event Time Altitude Azimuth Distance (km) Brightness Sun altitude
Exits shadow 03:35:53 - 285° (WNW) 2,065 -0.5 -12.9°
Reaches altitude 10° 03:37:15 10° 287° (WNW) 1,509 -1.2 -12.8°
Maximum altitude 03:40:38 71° 13° (NNE) 449 -3.5 -12.4°
Drops below altitude 10° 03:44:00 10° 98° (E) 1,508 -0.4 -12.0°
Sets 03:46:07 0° 100° (E) 2,372 0.6 -11.8°
